<?xml version="1.0" encoding="UTF-8" standalone="no" ?>
<gpx xmlns="http://www.topografix.com/GPX/1/1" xmlns:xsi="http://www.w3.org/2001/XMLSchema-instance" xsi:schemaLocation="http://www.topografix.com/GPX/1/1 http://www.topografix.com/GPX/1/1/gpx.xsd" version="1.1" creator="VisuGPX - https://www.visugpx.com">
  <metadata>
    <name>De Veneux-les-Sablons à Montereau</name>
    <desc><![CDATA[De la vallée du Loing et son canal, par la vallée de l\'Orvanne, rejoignez la vallée de la Seine]]></desc>
  </metadata>
  <trk>
    <name><![CDATA[GR11]]></name>
    <trkseg>
      <trkpt lat="48.37783" lon="2.79827">
        <ele>69</ele>
        <time>2011-02-03T06:26:09.000Z</time>
      </trkpt>
      <trkpt lat="48.37806" lon="2.79766">
        <ele>71</ele>
        <time>2011-02-03T06:26:09.000Z</time>
      </trkpt>
      <trkpt lat="48.37887" lon="2.7974">
        <ele>70</ele>
        <time>2011-02-03T06:26:09.000Z</time>
      </trkpt>
      <trkpt lat="48.3791" lon="2.79679">
        <ele>70</ele>
        <time>2011-02-03T06:26:09.000Z</time>
      </trkpt>
      <trkpt lat="48.37999" lon="2.79795">
        <ele>53</ele>
        <time>2011-02-03T06:26:09.000Z</time>
      </trkpt>
      <trkpt lat="48.38049" lon="2.79816">
        <ele>49</ele>
        <time>2011-02-03T06:26:09.000Z</time>
      </trkpt>
      <trkpt lat="48.38116" lon="2.79917">
        <ele>47</ele>
        <time>2011-02-03T06:26:09.000Z</time>
      </trkpt>
      <trkpt lat="48.37894" lon="2.80341">
        <ele>49</ele>
        <time>2011-02-03T06:26:09.000Z</time>
      </trkpt>
      <trkpt lat="48.37888" lon="2.80604">
        <ele>48</ele>
        <time>2011-02-03T06:26:09.000Z</time>
      </trkpt>
      <trkpt lat="48.37932" lon="2.80847">
        <ele>48</ele>
        <time>2011-02-03T06:26:09.000Z</time>
      </trkpt>
      <trkpt lat="48.38048" lon="2.81185">
        <ele>46</ele>
        <time>2011-02-03T06:26:09.000Z</time>
      </trkpt>
      <trkpt lat="48.3783" lon="2.81723">
        <ele>50</ele>
        <time>2011-02-03T06:26:09.000Z</time>
      </trkpt>
      <trkpt lat="48.37721" lon="2.8181">
        <ele>47</ele>
        <time>2011-02-03T06:26:09.000Z</time>
      </trkpt>
      <trkpt lat="48.37276" lon="2.819">
        <ele>48</ele>
        <time>2011-02-03T06:26:09.000Z</time>
      </trkpt>
      <trkpt lat="48.37111" lon="2.8258">
        <ele>48</ele>
        <time>2011-02-03T06:26:09.000Z</time>
      </trkpt>
      <trkpt lat="48.3658" lon="2.82744">
        <ele>49</ele>
        <time>2011-02-03T06:26:09.000Z</time>
      </trkpt>
      <trkpt lat="48.36073" lon="2.82449">
        <ele>50</ele>
        <time>2011-02-03T06:26:09.000Z</time>
      </trkpt>
      <trkpt lat="48.35666" lon="2.82027">
        <ele>50</ele>
        <time>2011-02-03T06:26:09.000Z</time>
      </trkpt>
      <trkpt lat="48.35353" lon="2.81566">
        <ele>49</ele>
        <time>2011-02-03T06:26:09.000Z</time>
      </trkpt>
      <trkpt lat="48.35224" lon="2.81335">
        <ele>49</ele>
        <time>2011-02-03T06:26:09.000Z</time>
      </trkpt>
      <trkpt lat="48.35113" lon="2.81051">
        <ele>48</ele>
        <time>2011-02-03T06:26:09.000Z</time>
      </trkpt>
      <trkpt lat="48.35081" lon="2.81051">
        <ele>49</ele>
        <time>2011-02-03T06:26:09.000Z</time>
      </trkpt>
      <trkpt lat="48.35188" lon="2.81389">
        <ele>52</ele>
        <time>2011-02-03T06:26:09.000Z</time>
      </trkpt>
      <trkpt lat="48.35402" lon="2.81721">
        <ele>50</ele>
        <time>2011-02-03T06:26:09.000Z</time>
      </trkpt>
      <trkpt lat="48.35306" lon="2.82031">
        <ele>59</ele>
        <time>2011-02-03T06:26:09.000Z</time>
      </trkpt>
      <trkpt lat="48.35217" lon="2.81962">
        <ele>70</ele>
        <time>2011-02-03T06:26:09.000Z</time>
      </trkpt>
      <trkpt lat="48.35203" lon="2.82111">
        <ele>69</ele>
        <time>2011-02-03T06:26:09.000Z</time>
      </trkpt>
      <trkpt lat="48.34887" lon="2.82303">
        <ele>77</ele>
        <time>2011-02-03T06:26:09.000Z</time>
      </trkpt>
      <trkpt lat="48.34902" lon="2.82067">
        <ele>78</ele>
        <time>2011-02-03T06:26:09.000Z</time>
      </trkpt>
      <trkpt lat="48.3469" lon="2.82072">
        <ele>86</ele>
        <time>2011-02-03T06:26:09.000Z</time>
      </trkpt>
      <trkpt lat="48.33987" lon="2.82545">
        <ele>89</ele>
        <time>2011-02-03T06:26:09.000Z</time>
      </trkpt>
      <trkpt lat="48.33844" lon="2.82483">
        <ele>85</ele>
        <time>2011-02-03T06:26:09.000Z</time>
      </trkpt>
      <trkpt lat="48.33384" lon="2.82654">
        <ele>83</ele>
        <time>2011-02-03T06:26:09.000Z</time>
      </trkpt>
      <trkpt lat="48.33634" lon="2.83222">
        <ele>67</ele>
        <time>2011-02-03T06:26:09.000Z</time>
      </trkpt>
      <trkpt lat="48.33629" lon="2.83364">
        <ele>69</ele>
        <time>2011-02-03T06:26:09.000Z</time>
      </trkpt>
      <trkpt lat="48.33762" lon="2.83783">
        <ele>68</ele>
        <time>2011-02-03T06:26:09.000Z</time>
      </trkpt>
      <trkpt lat="48.33752" lon="2.83837">
        <ele>69</ele>
        <time>2011-02-03T06:26:09.000Z</time>
      </trkpt>
      <trkpt lat="48.3344" lon="2.84326">
        <ele>94</ele>
        <time>2011-02-03T06:26:09.000Z</time>
      </trkpt>
      <trkpt lat="48.33354" lon="2.8442">
        <ele>83</ele>
        <time>2011-02-03T06:26:09.000Z</time>
      </trkpt>
      <trkpt lat="48.33264" lon="2.84486">
        <ele>78</ele>
        <time>2011-02-03T06:26:09.000Z</time>
      </trkpt>
      <trkpt lat="48.3308" lon="2.84545">
        <ele>69</ele>
        <time>2011-02-03T06:26:09.000Z</time>
      </trkpt>
      <trkpt lat="48.33044" lon="2.84538">
        <ele>71</ele>
        <time>2011-02-03T06:26:09.000Z</time>
      </trkpt>
      <trkpt lat="48.32953" lon="2.84598">
        <ele>67</ele>
        <time>2011-02-03T06:26:09.000Z</time>
      </trkpt>
      <trkpt lat="48.33076" lon="2.85374">
        <ele>72</ele>
        <time>2011-02-03T06:26:09.000Z</time>
      </trkpt>
      <trkpt lat="48.32864" lon="2.8544">
        <ele>68</ele>
        <time>2011-02-03T06:26:09.000Z</time>
      </trkpt>
      <trkpt lat="48.32882" lon="2.85548">
        <ele>71</ele>
        <time>2011-02-03T06:26:09.000Z</time>
      </trkpt>
      <trkpt lat="48.32754" lon="2.85911">
        <ele>90</ele>
        <time>2011-02-03T06:26:09.000Z</time>
      </trkpt>
      <trkpt lat="48.32653" lon="2.86584">
        <ele>77</ele>
        <time>2011-02-03T06:26:09.000Z</time>
      </trkpt>
      <trkpt lat="48.32748" lon="2.87272">
        <ele>76</ele>
        <time>2011-02-03T06:26:09.000Z</time>
      </trkpt>
      <trkpt lat="48.32716" lon="2.87555">
        <ele>77</ele>
        <time>2011-02-03T06:26:09.000Z</time>
      </trkpt>
      <trkpt lat="48.33016" lon="2.87733">
        <ele>106</ele>
        <time>2011-02-03T06:26:09.000Z</time>
      </trkpt>
      <trkpt lat="48.32496" lon="2.89339">
        <ele>93</ele>
        <time>2011-02-03T06:26:09.000Z</time>
      </trkpt>
      <trkpt lat="48.32269" lon="2.89876">
        <ele>82</ele>
        <time>2011-02-03T06:26:09.000Z</time>
      </trkpt>
      <trkpt lat="48.32195" lon="2.90145">
        <ele>77</ele>
        <time>2011-02-03T06:26:09.000Z</time>
      </trkpt>
      <trkpt lat="48.32208" lon="2.90374">
        <ele>81</ele>
        <time>2011-02-03T06:26:09.000Z</time>
      </trkpt>
      <trkpt lat="48.32364" lon="2.90612">
        <ele>94</ele>
        <time>2011-02-03T06:26:09.000Z</time>
      </trkpt>
      <trkpt lat="48.32508" lon="2.9064">
        <ele>102</ele>
        <time>2011-02-03T06:26:09.000Z</time>
      </trkpt>
      <trkpt lat="48.3279" lon="2.90819">
        <ele>110</ele>
        <time>2011-02-03T06:26:09.000Z</time>
      </trkpt>
      <trkpt lat="48.33376" lon="2.91418">
        <ele>113</ele>
        <time>2011-02-03T06:26:09.000Z</time>
      </trkpt>
      <trkpt lat="48.33475" lon="2.9144">
        <ele>110</ele>
        <time>2011-02-03T06:26:09.000Z</time>
      </trkpt>
      <trkpt lat="48.33578" lon="2.91502">
        <ele>104</ele>
        <time>2011-02-03T06:26:09.000Z</time>
      </trkpt>
      <trkpt lat="48.3412" lon="2.91946">
        <ele>83</ele>
        <time>2011-02-03T06:26:09.000Z</time>
      </trkpt>
      <trkpt lat="48.34133" lon="2.92007">
        <ele>81</ele>
        <time>2011-02-03T06:26:09.000Z</time>
      </trkpt>
      <trkpt lat="48.34402" lon="2.92212">
        <ele>70</ele>
        <time>2011-02-03T06:26:09.000Z</time>
      </trkpt>
      <trkpt lat="48.3517" lon="2.93158">
        <ele>61</ele>
        <time>2011-02-03T06:26:09.000Z</time>
      </trkpt>
      <trkpt lat="48.35323" lon="2.93166">
        <ele>59</ele>
        <time>2011-02-03T06:26:09.000Z</time>
      </trkpt>
      <trkpt lat="48.35304" lon="2.93382">
        <ele>58</ele>
        <time>2011-02-03T06:26:09.000Z</time>
      </trkpt>
      <trkpt lat="48.35943" lon="2.93254">
        <ele>53</ele>
        <time>2011-02-03T06:26:09.000Z</time>
      </trkpt>
      <trkpt lat="48.35988" lon="2.93161">
        <ele>52</ele>
        <time>2011-02-03T06:26:09.000Z</time>
      </trkpt>
      <trkpt lat="48.36044" lon="2.92912">
        <ele>51</ele>
        <time>2011-02-03T06:26:09.000Z</time>
      </trkpt>
      <trkpt lat="48.36298" lon="2.93205">
        <ele>50</ele>
        <time>2011-02-03T06:26:09.000Z</time>
      </trkpt>
      <trkpt lat="48.36884" lon="2.92962">
        <ele>50</ele>
        <time>2011-02-03T06:26:09.000Z</time>
      </trkpt>
      <trkpt lat="48.3703" lon="2.93483">
        <ele>50</ele>
        <time>2011-02-03T06:26:09.000Z</time>
      </trkpt>
      <trkpt lat="48.37191" lon="2.93532">
        <ele>50</ele>
        <time>2011-02-03T06:26:09.000Z</time>
      </trkpt>
      <trkpt lat="48.37259" lon="2.93411">
        <ele>50</ele>
        <time>2011-02-03T06:26:09.000Z</time>
      </trkpt>
      <trkpt lat="48.3743" lon="2.93373">
        <ele>50</ele>
        <time>2011-02-03T06:26:09.000Z</time>
      </trkpt>
      <trkpt lat="48.37456" lon="2.93656">
        <ele>50</ele>
        <time>2011-02-03T06:26:09.000Z</time>
      </trkpt>
      <trkpt lat="48.37636" lon="2.93658">
        <ele>50</ele>
        <time>2011-02-03T06:26:09.000Z</time>
      </trkpt>
      <trkpt lat="48.37794" lon="2.93518">
        <ele>49</ele>
        <time>2011-02-03T06:26:09.000Z</time>
      </trkpt>
      <trkpt lat="48.37808" lon="2.93451">
        <ele>49</ele>
        <time>2011-02-03T06:26:09.000Z</time>
      </trkpt>
      <trkpt lat="48.38055" lon="2.93488">
        <ele>49</ele>
        <time>2011-02-03T06:26:09.000Z</time>
      </trkpt>
      <trkpt lat="48.38086" lon="2.93596">
        <ele>49</ele>
        <time>2011-02-03T06:26:09.000Z</time>
      </trkpt>
      <trkpt lat="48.38062" lon="2.93751">
        <ele>49</ele>
        <time>2011-02-03T06:26:09.000Z</time>
      </trkpt>
      <trkpt lat="48.38056" lon="2.94001">
        <ele>49</ele>
        <time>2011-02-03T06:26:09.000Z</time>
      </trkpt>
      <trkpt lat="48.37996" lon="2.94351">
        <ele>49</ele>
        <time>2011-02-03T06:26:09.000Z</time>
      </trkpt>
      <trkpt lat="48.37783" lon="2.95617">
        <ele>51</ele>
        <time>2011-02-03T06:26:09.000Z</time>
      </trkpt>
      <trkpt lat="48.3772" lon="2.95636">
        <ele>51</ele>
        <time>2011-02-03T06:26:09.000Z</time>
      </trkpt>
    </trkseg>
  </trk>
</gpx>